TimePDT,TemperatureF,Dew PointF,Humidity,Sea Level PressureIn,VisibilityMPH,Wind Direction,Wind SpeedMPH,Gust SpeedMPH,PrecipitationIn,Events,Conditions,WindDirDegrees,DateUTC
12:53 AM,48.9,44.1,83,30.21,6.0,Calm,Calm,-,N/A,,Haze,0,2013-10-27 07:53:00
1:53 AM,48.9,44.1,83,30.16,6.0,SSE,4.6,-,N/A,,Haze,150,2013-10-27 08:53:00
2:53 AM,48.9,44.1,83,30.12,7.0,South,4.6,-,N/A,,Overcast,180,2013-10-27 09:53:00
3:53 AM,48.0,44.1,86,30.11,7.0,ESE,3.5,-,N/A,,Overcast,110,2013-10-27 10:53:00
4:53 AM,48.0,44.1,86,30.06,7.0,SE,3.5,-,N/A,,Overcast,140,2013-10-27 11:53:00
5:22 AM,48.2,44.6,87,30.02,6.0,ESE,3.5,-,N/A,,Overcast,110,2013-10-27 12:22:00
5:53 AM,46.9,45.0,93,30.02,4.0,Variable,3.5,-,N/A,,Overcast,0,2013-10-27 12:53:00
6:06 AM,46.4,44.6,93,30.00,2.5,SE,3.5,-,0.00,Rain,Light Rain,130,2013-10-27 13:06:00
6:53 AM,46.9,45.0,93,30.01,2.0,SE,5.8,-,0.00,Rain,Light Rain,140,2013-10-27 13:53:00
7:01 AM,46.4,44.6,93,29.99,2.0,Variable,3.5,-,0.01,Rain,Light Rain,0,2013-10-27 14:01:00
7:17 AM,46.4,44.6,93,29.98,3.0,ESE,3.5,-,0.01,,Overcast,110,2013-10-27 14:17:00
7:26 AM,46.4,44.6,93,29.98,2.5,SSE,3.5,-,0.01,,Overcast,150,2013-10-27 14:26:00
7:53 AM,46.9,45.0,93,29.99,4.0,Calm,Calm,-,0.01,Rain,Light Rain,0,2013-10-27 14:53:00
8:07 AM,46.4,44.6,93,29.98,4.0,Calm,Calm,-,0.00,Rain,Light Rain,0,2013-10-27 15:07:00
8:53 AM,46.9,45.0,93,29.97,4.0,Calm,Calm,-,0.00,,Overcast,0,2013-10-27 15:53:00
9:53 AM,48.0,45.0,89,29.96,4.0,Calm,Calm,-,N/A,,Overcast,0,2013-10-27 16:53:00
10:30 AM,48.2,46.4,93,29.95,3.0,WNW,6.9,-,0.00,Rain,Light Rain,300,2013-10-27 17:30:00
10:37 AM,48.2,46.4,93,29.95,1.8,NW,4.6,-,0.01,Rain,Light Rain,310,2013-10-27 17:37:00
10:50 AM,48.2,46.4,93,29.95,2.5,NW,3.5,-,0.01,Rain,Light Rain,310,2013-10-27 17:50:00
10:53 AM,48.0,46.9,96,29.97,2.0,WNW,6.9,-,0.01,Rain,Light Rain,300,2013-10-27 17:53:00
11:53 AM,48.9,48.0,97,29.96,3.0,Calm,Calm,-,0.01,,Overcast,0,2013-10-27 18:53:00
12:04 PM,50.0,48.2,94,29.95,4.0,North,4.6,-,N/A,,Overcast,350,2013-10-27 19:04:00
12:53 PM,51.1,48.0,89,29.96,7.0,North,6.9,-,N/A,,Overcast,360,2013-10-27 19:53:00
1:53 PM,52.0,46.9,83,29.94,10.0,Variable,5.8,-,N/A,,Overcast,0,2013-10-27 20:53:00
2:53 PM,53.1,48.0,83,29.93,10.0,Variable,4.6,-,N/A,,Overcast,0,2013-10-27 21:53:00
3:53 PM,53.1,48.0,83,29.94,10.0,ENE,3.5,-,N/A,,Overcast,70,2013-10-27 22:53:00
4:53 PM,54.0,48.0,80,29.94,9.0,Calm,Calm,-,N/A,,Overcast,0,2013-10-27 23:53:00
5:00 PM,53.6,48.2,82,29.92,9.0,East,3.5,-,N/A,,Overcast,100,2013-10-28 00:00:00
5:53 PM,51.1,46.9,86,29.94,9.0,Calm,Calm,-,N/A,,Clear,0,2013-10-28 00:53:00
6:53 PM,48.9,46.9,93,29.94,8.0,Calm,Calm,-,N/A,,Clear,0,2013-10-28 01:53:00
7:53 PM,46.9,46.0,97,29.95,6.0,Calm,Calm,-,N/A,,Clear,0,2013-10-28 02:53:00
8:53 PM,46.9,46.0,97,29.95,6.0,Calm,Calm,-,N/A,,Mostly Cloudy,0,2013-10-28 03:53:00
9:53 PM,45.0,45.0,100,29.94,4.0,Calm,Calm,-,N/A,,Clear,0,2013-10-28 04:53:00
10:53 PM,44.1,44.1,100,29.94,3.0,Calm,Calm,-,N/A,,Clear,0,2013-10-28 05:53:00
11:53 PM,46.0,45.0,96,29.94,6.0,Calm,Calm,-,N/A,,Partly Cloudy,0,2013-10-28 06:53:00